Location: Wildlife_Club
(35.6000°N, 81.4330°W)
Time: 02:59:49
(UTC-04:00)

Vanguard 2 Rocket - Pass Details

Date: 19 June 2019
Orbit: 554 x 3326 km, 32.9° (Epoch: 18 July)

Event Time Altitude Azimuth Distance (km) Brightness Sun altitude
Rises 02:43:10 0° 273° (W) 5,296 10.7 -28.3°
Reaches altitude 10° 02:46:05 10° 272° (W) 4,600 10.3 -28.1°
Maximum altitude 03:00:19 79° 189° (S) 2,960 9.2 -27.0°
Drops below altitude 10° 03:20:46 10° 106° (ESE) 6,275 11.3 -25.1°
Sets 03:25:33 0° 106° (ESE) 7,226 11.7 -24.7°
